Location: São Paulo
(23.5507°S, 46.6334°W)
Time: 07:46:05
(UTC-03:00)

S-56A Canister/Altair - All Passes

Search period start: 16 February 2026 00:00
Search period end: 26 February 2026 00:00
Orbit: 632 x 2485 km, 38.9° (Epoch: 16 February)

Date Brightness Start Highest point End Pass type
(mag) Time Alt. Az. Time Alt. Az. Time Alt. Az.
16 Feb - 07:13:07 10° N 07:23:21 22° NE 07:33:13 10° E daylight
16 Feb - 09:14:25 10° NW 09:29:19 65° NE 09:41:44 10° ESE daylight
16 Feb - 11:21:37 10° WNW 11:35:50 59° SSW 11:46:16 10° SE daylight
16 Feb - 13:32:24 10° WSW 13:42:49 33° SSW 13:50:17 10° SE daylight
16 Feb - 15:41:44 10° SW 15:49:39 32° S 15:55:15 10° ESE daylight
16 Feb - 17:47:47 10° WSW 17:54:40 89° SSE 17:59:33 10° NE daylight
16 Feb - 19:56:41 10° WNW 19:57:21 10° NW 19:58:02 10° NW visible
17 Feb - 06:39:00 10° N 06:47:41 18° NE 06:56:21 10° E daylight
17 Feb - 08:38:55 10° NW 08:53:31 58° NE 09:06:20 10° ESE daylight
17 Feb - 10:45:19 10° WNW 11:00:06 66° SSW 11:11:18 10° SE daylight
17 Feb - 12:55:47 10° WSW 13:07:13 36° SSW 13:15:27 10° SE daylight
17 Feb - 15:05:44 10° SW 15:14:21 32° S 15:20:24 10° ESE daylight
17 Feb - 17:12:16 10° SW 17:19:49 74° SSE 17:24:59 10° ENE daylight
17 Feb - 19:19:32 10° W 19:22:43 16° NW 19:25:31 10° NNW visible
18 Feb - 06:05:34 10° NNE 06:12:05 14° NE 06:18:43 10° ENE daylight
18 Feb - 08:03:35 10° NNW 08:17:43 51° NE 08:30:47 10° ESE daylight
18 Feb - 10:09:08 10° WNW 10:24:16 73° SSW 10:36:15 10° SE daylight
18 Feb - 12:19:08 10° W 12:31:31 39° SSW 12:40:33 10° SE daylight
18 Feb - 14:29:33 10° SW 14:38:56 32° S 14:45:32 10° ESE daylight
18 Feb - 16:36:40 10° SW 16:44:52 63° SSE 16:50:21 10° ENE daylight
18 Feb - 18:43:28 10° W 18:48:05 22° NW 18:51:51 10° N daylight
19 Feb - 05:34:20 10° NE 05:36:31 10° NE 05:38:44 10° ENE visible
19 Feb - 07:28:26 10° NNW 07:41:57 45° NE 07:55:04 10° ESE daylight
19 Feb - 09:33:07 10° WNW 09:48:23 80° SSW 10:01:06 10° SE daylight
19 Feb - 11:42:31 10° W 11:55:45 43° SSW 12:05:37 10° SE daylight
19 Feb - 13:53:15 10° WSW 14:03:26 33° S 14:10:37 10° ESE daylight
19 Feb - 16:00:57 10° SW 16:09:49 56° SSE 16:15:40 10° ENE daylight
19 Feb - 18:07:36 10° WSW 18:13:27 31° NW 18:17:53 10° NNE daylight
20 Feb - 06:53:28 10° NNW 07:06:13 39° NE 07:19:08 10° ESE daylight
20 Feb - 08:57:16 10° NW 09:12:29 88° SW 09:25:50 10° ESE daylight
20 Feb - 11:05:58 10° W 11:19:54 47° SSW 11:30:36 10° SE daylight
20 Feb - 13:16:49 10° WSW 13:27:49 34° S 13:35:40 10° ESE daylight
20 Feb - 15:25:07 10° SW 15:34:38 50° SSE 15:40:55 10° E daylight
20 Feb - 17:31:49 10° WSW 17:38:46 42° NW 17:43:43 10° NNE daylight
21 Feb - 06:18:44 10° N 06:30:33 33° NE 06:42:59 10° ESE daylight
21 Feb - 08:21:34 10° NW 08:36:33 84° NE 08:50:27 10° ESE daylight
21 Feb - 10:29:31 10° W 10:43:58 51° SSW 10:55:30 10° SE daylight
21 Feb - 12:40:18 10° WSW 12:52:06 36° S 13:00:40 10° ESE daylight
21 Feb - 14:49:09 10° SW 14:59:21 47° SSE 15:06:06 10° E daylight
21 Feb - 16:56:00 10° WSW 17:04:01 55° NW 17:09:26 10° NE daylight
22 Feb - 05:44:15 10° N 05:54:57 28° NE 06:06:31 10° E daylight
22 Feb - 07:46:03 10° NW 08:00:38 76° NE 08:14:57 10° ESE daylight
22 Feb - 09:53:13 10° W 10:07:58 56° SSW 10:20:20 10° SE daylight
22 Feb - 12:03:45 10° WSW 12:16:16 37° S 12:25:36 10° ESE daylight
22 Feb - 14:13:06 10° SW 14:23:57 44° SSE 14:31:15 10° E daylight
22 Feb - 16:20:10 10° WSW 16:29:10 69° NW 16:35:03 10° NE daylight
23 Feb - 05:10:04 10° N 05:19:25 23° NE 05:29:43 10° E visible
23 Feb - 07:10:42 10° NW 07:24:45 69° NE 07:39:18 10° ESE daylight
23 Feb - 09:17:02 10° WNW 09:31:56 61° SSW 09:45:03 10° SE daylight
23 Feb - 11:27:11 10° WSW 11:40:21 39° S 11:50:28 10° ESE daylight
23 Feb - 13:36:55 10° SW 13:48:25 43° SSE 13:56:18 10° E daylight
23 Feb - 15:44:17 10° WSW 15:54:12 83° NW 16:00:33 10° NE daylight
23 Feb - 17:53:36 10° W 17:56:55 14° NW 17:59:48 10° NNW daylight
24 Feb - 04:36:20 10° NNE 04:43:58 18° NE 04:52:24 10° E visible
24 Feb - 06:35:32 10° NW 06:48:56 61° NE 07:03:30 10° ESE daylight
24 Feb - 08:41:02 10° WNW 08:55:52 66° SSW 09:09:41 10° SE daylight
24 Feb - 10:50:39 10° WSW 11:04:21 41° S 11:15:15 10° ESE daylight
24 Feb - 13:00:39 10° SW 13:12:46 42° S 13:21:17 10° E daylight
24 Feb - 15:08:20 10° SW 15:19:07 84° SSE 15:25:58 10° ENE daylight
24 Feb - 17:16:47 10° W 17:22:15 20° NW 17:26:33 10° N daylight
25 Feb - 04:03:28 10° NNE 04:08:36 13° NE 04:14:09 10° ENE visible
25 Feb - 06:00:33 10° NNW 06:13:11 53° NE 06:27:33 10° ESE daylight
25 Feb - 08:05:12 10° WNW 08:19:49 72° SSW 08:34:13 10° SE daylight
25 Feb - 10:14:12 10° W 10:28:16 43° SSW 10:39:58 10° ESE daylight
25 Feb - 12:24:19 10° WSW 12:37:00 41° S 12:46:10 10° ESE daylight
25 Feb - 14:32:20 10° SW 14:43:53 75° SSE 14:51:18 10° ENE daylight
25 Feb - 16:40:22 10° WSW 16:47:33 28° NW 16:52:47 10° N daylight
